User: anonymous   Login
Location: Marsån
(66.4167°N, 22.2833°E)
Time: 19:01:01
(UTC+00:00)
Language:

MetOp-B - Orbit

View from above orbital plane
View from above orbital plane
View from above satellite
View from above satellite

Ground track
Ground track

The orbit data is extracted from the following two-line orbital elements,

1 38771U 12049A   24141.44112520  .00000450  00000-0  22536-3 0  9993
2 38771  98.6288 199.2836 0001894 101.9782 258.1608 14.21536932605600
Epoch (UTC): 20 May 2024 10:35:13
Eccentricity: 0.0001894
inclination: 98.6288°
perigee height: 819 km
apogee height: 821 km
right ascension of ascending node: 199.2836°
argument of perigee: 101.9782°
revolutions per day: 14.21536932
mean anomaly at epoch: 258.1608°
orbit number at epoch: 60560

The dashed part of the orbit path shows where the satellite is in the earth's shadow,  

DLR